Location: Bussy-Saint-Georges
(48.8410°N, 2.7017°E)
Time: 22:51:56
(UTC+00:00)

Cosmos 1844 - Pass Details

Date: 18 October 2021
Orbit: 822 x 868 km, 70.9° (Epoch: 07 December)

Event Time Altitude Azimuth Distance (km) Brightness Sun altitude
Rises 19:35:40 0° 332° (NNW) 3,465 7.5 -27.2°
Reaches altitude 10° 19:38:10 10° 335° (NNW) 2,522 6.7 -27.6°
Enters shadow 19:43:18 64° 15° (NNE) 957 3.9 -28.4°
